CW8468 Weather Reports


Display with metric or nautical units.
time (UTC)temp
F
wind
direction
speed
MPH
gust
MPH
rain 1hr
in
rain 24hr
in
rain mn
in
humidity
%
barometer
mb
20260508124515 68 107 2.0 5.0 0.00 0.00 0.00 82 1011.9
20260508124002 67 138 1.0 4.0 0.00 0.00 0.00 82 1011.9
20260508123501 68 127 1.0 6.0 0.00 0.00 0.00 82 1012.0
20260508123024 68 76 1.0 6.0 0.00 0.00 0.00 82 1012.0
20260508122501 68 106 2.0 5.0 0.00 0.00 0.00 83 1012.0
20260508122003 68 87 2.0 5.0 0.00 0.00 0.00 83 1012.1
20260508121517 68 29 1.0 4.0 0.00 0.00 0.00 83 1012.1
20260508121001 67 62 1.0 4.0 0.00 0.00 0.00 83 1012.2
20260508120024 68 13 2.0 5.0 0.00 0.00 0.00 82 1012.6
20260508115500 68 21 2.0 5.0 0.00 0.00 0.00 82 1012.7
20260508115000 68 2 2.0 5.0 0.00 0.00 0.00 81 1012.9
20260508114515 68 326 2.0 5.0 0.00 0.00 0.00 81 1012.8
20260508113459 68 2 2.0 5.0 0.00 0.00 0.00 81 1012.8
20260508113026 68 29 2.0 5.0 0.00 0.00 0.00 81 1012.7
20260508112001 68 28 2.0 5.0 0.00 0.00 0.00 81 1012.6
20260508111515 68 77 1.0 5.0 0.00 0.00 0.00 80 1012.2
20260508111001 68 151 2.0 7.0 0.00 0.00 0.00 80 1012.1
20260508110500 68 115 2.0 7.0 0.00 0.00 0.00 80 1011.7
20260508110029 68 53 1.0 6.0 0.00 0.00 0.00 80 1011.7
20260508105501 68 77 2.0 8.0 0.00 0.00 0.00 80 1011.8
20260508105003 68 63 2.0 9.0 0.00 0.00 0.00 80 1011.6
20260508104517 68 120 2.0 9.0 0.00 0.00 0.00 80 1011.4
20260508104001 68 133 2.0 3.0 0.00 0.00 0.00 79 1011.7
20260508102501 68 19 2.0 5.0 0.00 0.00 0.00 79 1012.4
20260508102002 68 332 1.0 4.0 0.00 0.00 0.00 79 1012.2
20260508101516 68 11 1.0 4.0 0.00 0.00 0.00 78 1012.3
20260508101001 68 45 1.0 4.0 0.00 0.00 0.00 78 1012.3
20260508100502 68 289 1.0 3.0 0.00 0.00 0.00 78 1012.2
20260508100022 68 94 1.0 6.0 0.00 0.00 0.00 78 1012.0
20260508095001 68 43 2.0 5.0 0.00 0.00 0.00 77 1011.8
20260508094001 68 69 2.0 7.0 0.00 0.00 0.00 77 1012.2
20260508093459 68 4 1.0 5.0 0.00 0.00 0.00 77 1012.2
20260508093023 68 34 2.0 4.0 0.00 0.00 0.00 77 1012.2
20260508092459 68 60 2.0 5.0 0.00 0.00 0.00 76 1012.2
20260508092003 68 330 2.0 6.0 0.00 0.00 0.00 76 1012.1
20260508091001 68 56 3.0 7.0 0.00 0.00 0.00 76 1011.4
20260508085459 68 39 2.0 5.0 0.00 0.00 0.00 76 1011.4
20260508085000 68 67 1.0 6.0 0.00 0.00 0.00 76 1011.7
20260508084515 68 102 2.0 6.0 0.00 0.00 0.00 76 1012.0
20260508083500 68 53 2.0 5.0 0.00 0.00 0.00 76 1012.2
20260508083024 68 35 2.0 5.0 0.00 0.00 0.00 75 1012.2
20260508082500 68 50 2.0 6.0 0.00 0.00 0.00 75 1012.2
20260508082001 69 358 2.0 6.0 0.00 0.00 0.00 76 1012.2
20260508081514 68 24 2.0 6.0 0.00 0.00 0.00 75 1012.2
20260508081000 69 41 3.0 6.0 0.00 0.00 0.00 75 1012.1
20260508080459 69 57 2.0 6.0 0.00 0.00 0.00 75 1012.0
20260508080023 69 4 2.0 6.0 0.00 0.00 0.00 75 1011.9
20260508075459 69 31 2.0 6.0 0.00 0.00 0.00 75 1011.9
20260508074959 69 6 2.0 6.0 0.00 0.00 0.00 75 1012.1
20260508074514 69 358 2.0 4.0 0.00 0.00 0.00 75 1012.3
20260508073959 69 4 2.0 4.0 0.00 0.00 0.00 75 1012.5
20260508073459 69 26 2.0 5.0 0.00 0.00 0.00 75 1012.5
20260508073023 69 64 2.0 5.0 0.00 0.00 0.00 75 1012.5
20260508072459 69 331 2.0 4.0 0.00 0.00 0.00 75 1012.5
20260508071514 69 348 2.0 4.0 0.00 0.00 0.00 75 1012.6
20260508070959 69 44 1.0 4.0 0.00 0.00 0.00 75 1012.6
20260508070459 69 340 2.0 5.0 0.00 0.00 0.00 75 1012.5
20260508070023 69 358 2.0 5.0 0.00 0.00 0.00 75 1012.4
20260508064959 69 6 1.0 4.0 0.00 0.00 0.00 75 1012.7
20260508064513 69 348 1.0 3.0 0.00 0.00 0.00 75 1012.7
20260508063959 69 8 1.0 3.0 0.00 0.00 0.00 75 1012.7
20260508063458 69 2 1.0 2.0 0.00 0.00 0.00 75 1012.7
20260508063027 69 12 1.0 2.0 0.00 0.00 0.00 75 1012.6
20260508061514 69 21 1.0 3.0 0.00 0.00 0.00 74 1012.4
20260508061000 69 83 1.0 4.0 0.00 0.00 0.00 74 1012.3
20260508060459 69 69 1.0 4.0 0.00 0.00 0.00 74 1012.4
20260508060030 69 94 1.0 3.0 0.00 0.00 0.00 74 1012.4
20260508055504 69 74 1.0 3.0 0.00 0.00 0.00 73 1012.6
20260508055004 69 39 1.0 3.0 0.00 0.00 0.00 73 1012.6
20260508054518 70 10 1.0 4.0 0.00 0.00 0.00 73 1012.6
20260508053503 70 108 1.0 3.0 0.00 0.00 0.00 73 1012.3
20260508053028 70 96 1.0 3.0 0.00 0.00 0.00 72 1012.4
20260508052503 70 35 2.0 5.0 0.00 0.00 0.00 72 1012.5
20260508052004 70 70 2.0 5.0 0.00 0.00 0.00 72 1012.3
20260508051006 70 37 1.0 4.0 0.00 0.00 0.00 71 1012.5
20260508045504 70 69 2.0 4.0 0.00 0.00 0.00 70 1012.6
20260508045006 70 94 2.0 5.0 0.00 0.00 0.00 71 1012.6
20260508044520 70 87 2.0 5.0 0.00 0.00 0.00 70 1012.6
20260508044005 70 48 2.0 5.0 0.00 0.00 0.00 70 1012.7
20260508043505 70 60 1.0 6.0 0.00 0.00 0.00 70 1012.8
20260508043029 71 41 1.0 6.0 0.00 0.00 0.00 69 1013.0
20260508042005 71 75 2.0 5.0 0.00 0.00 0.00 69 1012.9
20260508041520 71 358 1.0 5.0 0.00 0.00 0.00 69 1012.9
20260508041005 71 112 2.0 5.0 0.00 0.00 0.00 69 1012.8
20260508040505 71 67 3.0 10.0 0.00 0.00 0.00 68 1012.7
20260508035503 71 348 3.0 9.0 0.00 0.00 0.00 68 1012.4
20260508035004 71 29 3.0 9.0 0.00 0.00 0.00 68 1012.4
20260508034518 71 81 3.0 11.0 0.00 0.00 0.00 68 1012.2
20260508034005 71 58 3.0 11.0 0.00 0.00 0.00 67 1012.0
20260508033503 71 88 3.0 10.0 0.00 0.00 0.00 68 1012.1
20260508033030 71 70 2.0 7.0 0.00 0.00 0.00 68 1012.5
20260508032503 71 31 2.0 5.0 0.00 0.00 0.00 67 1012.8
20260508032005 71 85 2.0 5.0 0.00 0.00 0.00 67 1012.9
20260508031521 71 23 2.0 6.0 0.00 0.00 0.00 67 1012.9
20260508031005 72 44 2.0 6.0 0.00 0.00 0.00 66 1013.1
20260508030503 72 21 2.0 6.0 0.00 0.00 0.00 66 1013.2
20260508030027 72 341 3.0 7.0 0.00 0.00 0.00 66 1013.2
20260508025503 72 77 3.0 7.0 0.00 0.00 0.00 66 1013.2
20260508025005 72 35 3.0 7.0 0.00 0.00 0.00 65 1013.2
20260508024519 72 60 3.0 6.0 0.00 0.00 0.00 65 1013.3
20260508024007 72 323 3.0 7.0 0.00 0.00 0.00 66 1013.3
20260508023503 72 341 3.0 5.0 0.00 0.00 0.00 66 1013.1
20260508023025 72 353 3.0 6.0 0.00 0.00 0.00 67 1012.8
20260508022503 72 10 3.0 6.0 0.00 0.00 0.00 66 1012.9
20260508022005 72 2 3.0 7.0 0.00 0.00 0.00 67 1013.1
20260508021518 73 331 2.0 7.0 0.00 0.00 0.00 67 1012.8
20260508021006 73 353 2.0 5.0 0.00 0.00 0.00 67 1013.0
20260508020028 73 27 1.0 5.0 0.00 0.00 0.00 67 1013.0
20260508015504 73 24 1.0 4.0 0.00 0.00 0.00 67 1012.9
20260508015004 73 348 1.0 3.0 0.00 0.00 0.00 66 1012.8
20260508014519 73 12 2.0 5.0 0.00 0.00 0.00 67 1012.8
20260508014005 73 14 2.0 5.0 0.00 0.00 0.00 67 1012.6
20260508013503 74 44 1.0 4.0 0.00 0.00 0.00 66 1012.8
20260508013027 74 18 1.0 3.0 0.00 0.00 0.00 66 1012.9
20260508012504 74 21 1.0 3.0 0.00 0.00 0.00 66 1012.9
20260508012005 74 11 1.0 2.0 0.00 0.00 0.00 66 1012.8
20260508011519 74 15 1.0 5.0 0.00 0.00 0.00 66 1012.8
20260508011004 74 34 2.0 5.0 0.00 0.00 0.00 67 1012.7
20260508010504 74 85 1.0 4.0 0.00 0.00 0.00 67 1012.6
20260508010026 74 9 1.0 4.0 0.00 0.00 0.00 66 1012.7
20260508005503 74 60 2.0 5.0 0.00 0.00 0.00 67 1012.7
20260508005004 75 6 2.0 5.0 0.00 0.00 0.00 65 1012.7
20260508004518 75 37 2.0 5.0 0.00 0.00 0.00 65 1012.7
20260508004004 75 50 2.0 4.0 0.00 0.00 0.00 65 1012.8
20260508003504 75 49 3.0 6.0 0.00 0.00 0.00 66 1012.7
20260508003030 75 4 4.0 6.0 0.00 0.00 0.00 65 1012.7
20260508002504 75 3 4.0 10.0 0.00 0.00 0.00 64 1012.6
20260508002005 75 324 4.0 10.0 0.00 0.00 0.00 65 1012.7
20260508001518 76 42 3.0 8.0 0.00 0.00 0.00 65 1012.9
20260508001005 76 314 3.0 6.0 0.00 0.00 0.00 65 1012.8
20260508000503 76 19 3.0 6.0 0.00 0.00 0.00 65 1012.9
20260508000028 76 353 2.0 7.0 0.00 0.00 0.00 65 1013.0
20260507235503 76 23 3.0 8.0 0.00 0.00 0.00 64 1012.9
20260507235004 76 52 3.0 10.0 0.00 0.00 0.00 64 1013.0
20260507234517 76 28 3.0 10.0 0.00 0.00 0.00 63 1013.1
20260507234005 76 27 4.0 8.0 0.00 0.00 0.00 63 1013.1
20260507233503 76 16 4.0 7.0 0.00 0.00 0.00 63 1013.1
20260507233026 76 16 4.0 8.0 0.00 0.00 0.00 63 1013.0
20260507232003 76 353 3.0 6.0 0.00 0.00 0.00 63 1012.8
20260507231004 77 348 4.0 11.0 0.00 0.00 0.00 62 1012.6
20260507230502 78 3 4.0 11.0 0.00 0.00 0.00 62 1012.5
20260507230027 78 15 4.0 10.0 0.00 0.00 0.00 61 1012.4
20260507225502 79 16 4.0 9.0 0.00 0.00 0.00 61 1012.4
20260507225005 78 17 4.0 9.0 0.00 0.00 0.00 62 1012.4
20260507224517 78 27 4.0 9.0 0.00 0.00 0.00 62 1012.2
20260507224004 78 55 4.0 9.0 0.00 0.00 0.00 64 1012.2
20260507223503 78 50 3.0 8.0 0.00 0.00 0.00 62 1012.0
20260507223026 78 48 3.0 10.0 0.00 0.00 0.00 63 1012.1
20260507222503 79 32 3.0 10.0 0.00 0.00 0.00 63 1012.0
20260507222004 79 37 3.0 7.0 0.00 0.00 0.00 62 1012.1
20260507221004 78 7 4.0 8.0 0.00 0.00 0.00 63 1012.3
20260507220503 78 358 3.0 8.0 0.00 0.00 0.00 64 1012.3
20260507220029 79 2 3.0 8.0 0.00 0.00 0.00 63 1012.5
20260507215501 79 318 2.0 6.0 0.00 0.00 0.00 64 1012.5
20260507215001 79 27 3.0 8.0 0.00 0.00 0.00 63 1012.5
20260507214517 79 118 4.0 8.0 0.00 0.00 0.00 63 1012.6
20260507214002 79 23 4.0 8.0 0.00 0.00 0.00 62 1012.6
20260507213501 79 47 3.0 8.0 0.00 0.00 0.00 61 1012.8
20260507213025 80 327 3.0 8.0 0.00 0.00 0.00 62 1012.8
20260507212502 79 23 3.0 8.0 0.00 0.00 0.00 61 1012.9
20260507212002 80 7 4.0 9.0 0.00 0.00 0.00 61 1012.8
20260507211516 80 25 4.0 9.0 0.00 0.00 0.00 62 1012.8
20260507211002 80 8 3.0 8.0 0.00 0.00 0.00 63 1012.8
20260507210501 80 291 4.0 10.0 0.00 0.00 0.00 62 1013.0
20260507210026 80 335 4.0 10.0 0.00 0.00 0.00 62 1013.0
20260507205502 80 329 4.0 10.0 0.00 0.00 0.00 62 1013.1
20260507205002 80 7 4.0 10.0 0.00 0.00 0.00 62 1013.1
20260507204516 79 341 4.0 9.0 0.00 0.00 0.00 62 1013.2
20260507204002 80 13 3.0 9.0 0.00 0.00 0.00 62 1013.1
20260507203501 80 316 3.0 7.0 0.00 0.00 0.00 62 1013.1
20260507203024 80 348 3.0 8.0 0.00 0.00 0.00 62 1013.2
20260507202502 80 322 3.0 8.0 0.00 0.00 0.00 62 1013.2
20260507202002 79 45 3.0 9.0 0.00 0.00 0.00 63 1013.2
20260507201516 79 38 4.0 9.0 0.00 0.00 0.00 64 1013.3
20260507201004 79 55 3.0 9.0 0.00 0.00 0.00 61 1013.5
20260507200502 80 358 3.0 9.0 0.00 0.00 0.00 62 1013.4
20260507200026 79 353 4.0 9.0 0.00 0.00 0.00 63 1013.4
20260507195501 79 44 4.0 9.0 0.00 0.00 0.00 63 1013.4
20260507195002 78 348 3.0 8.0 0.00 0.00 0.00 65 1013.3
20260507194517 77 358 3.0 10.0 0.00 0.00 0.00 66 1013.5
20260507194002 76 71 4.0 10.0 0.00 0.00 0.00 66 1013.6
20260507193502 76 27 4.0 11.0 0.00 0.00 0.00 64 1013.7
20260507193025 76 341 4.0 11.0 0.00 0.00 0.00 67 1013.9
20260507192003 74 4 4.0 9.0 0.00 0.00 0.00 67 1014.1
20260507191002 75 330 4.0 9.0 0.00 0.00 0.00 67 1014.3
20260507190025 74 27 5.0 11.0 0.00 0.00 0.00 67 1014.5
20260507185501 73 10 4.0 11.0 0.00 0.00 0.00 68 1014.6
20260507185002 73 47 5.0 11.0 0.00 0.00 0.00 68 1014.7
20260507184516 73 339 5.0 11.0 0.00 0.00 0.00 67 1014.6
20260507184003 74 358 5.0 11.0 0.00 0.00 0.00 68 1014.5
20260507183502 73 348 5.0 10.0 0.00 0.00 0.00 68 1014.6
20260507182501 73 3 6.0 11.0 0.00 0.00 0.00 68 1014.9
20260507182003 72 58 5.0 11.0 0.00 0.00 0.00 69 1014.9
20260507181517 73 18 5.0 11.0 0.00 0.00 0.00 68 1014.9
20260507180502 72 358 5.0 13.0 0.00 0.00 0.00 71 1014.8
20260507180026 71 333 6.0 15.0 0.00 0.00 0.00 71 1014.9
20260507175501 71 313 5.0 15.0 0.00 0.00 0.00 70 1015.1
20260507175003 70 79 5.0 12.0 0.00 0.00 0.00 71 1015.2
20260507174516 71 293 5.0 10.0 0.00 0.00 0.00 71 1015.3
20260507174002 70 21 5.0 10.0 0.00 0.00 0.00 72 1015.4
20260507173501 70 348 5.0 10.0 0.00 0.00 0.00 71 1015.4
20260507173025 70 30 5.0 10.0 0.00 0.00 0.00 70 1015.5
20260507172503 70 307 4.0 10.0 0.00 0.00 0.00 71 1015.5
20260507171516 70 10 4.0 9.0 0.00 0.00 0.00 72 1015.5
20260507171002 69 326 4.0 8.0 0.00 0.00 0.00 72 1015.7
20260507170501 69 15 4.0 8.0 0.00 0.00 0.00 72 1015.7
20260507165001 69 296 4.0 9.0 0.00 0.00 0.00 72 1015.7
20260507164516 69 60 3.0 9.0 0.00 0.00 0.00 72 1015.6
20260507164002 69 342 2.0 8.0 0.00 0.00 0.00 72 1015.7
20260507163501 69 348 3.0 6.0 0.00 0.00 0.00 72 1015.5
20260507163027 69 337 3.0 8.0 0.00 0.00 0.00 73 1015.4
20260507162002 68 16 4.0 11.0 0.00 0.00 0.00 74 1015.3
20260507161516 68 32 4.0 11.0 0.00 0.00 0.00 75 1015.2
20260507160501 67 353 4.0 10.0 0.00 0.00 0.00 74 1014.9
20260507160025 67 348 4.0 10.0 0.00 0.00 0.00 74 1014.9
20260507155500 67 348 4.0 11.0 0.00 0.00 0.00 75 1015.0
20260507155002 67 23 4.0 11.0 0.00 0.00 0.00 77 1015.1
20260507154515 66 344 4.0 10.0 0.00 0.00 0.00 77 1015.2
20260507154001 66 2 4.0 9.0 0.00 0.00 0.00 77 1015.3
20260507153501 65 336 4.0 9.0 0.00 0.00 0.00 77 1015.4
20260507153027 65 358 5.0 12.0 0.00 0.00 0.00 77 1015.5
20260507152500 65 315 5.0 12.0 0.00 0.00 0.00 77 1015.6
20260507152001 65 49 5.0 9.0 0.00 0.00 0.00 78 1015.4
20260507151515 65 353 4.0 10.0 0.00 0.00 0.00 78 1015.4
20260507151002 65 358 4.0 10.0 0.00 0.00 0.00 78 1015.4
20260507150501 65 39 4.0 10.0 0.00 0.00 0.00 79 1015.4
20260507150023 65 333 4.0 12.0 0.00 0.00 0.00 79 1015.4
20260507145502 64 23 4.0 12.0 0.00 0.00 0.00 79 1015.4
20260507145002 64 358 4.0 8.0 0.00 0.00 0.00 79 1015.5
20260507144516 64 2 5.0 12.0 0.00 0.00 0.00 79 1015.5
20260507144003 64 27 5.0 12.0 0.00 0.00 0.00 79 1015.5
20260507143501 64 35 5.0 12.0 0.00 0.00 0.00 79 1015.3
20260507143025 64 328 5.0 12.0 0.00 0.00 0.00 79 1015.1
20260507141515 65 4 6.0 15.0 0.00 0.00 0.00 79 1014.6
20260507141002 65 12 6.0 15.0 0.00 0.00 0.00 79 1014.5
20260507140500 65 341 6.0 14.0 0.00 0.00 0.00 79 1014.4
20260507140029 64 19 5.0 12.0 0.00 0.00 0.00 81 1014.4
20260507135502 64 31 5.0 14.0 0.00 0.00 0.00 82 1014.7
20260507135003 64 53 5.0 14.0 0.00 0.00 0.00 82 1014.6
20260507134516 63 348 4.0 10.0 0.00 0.00 0.00 83 1014.9
20260507134003 63 339 4.0 10.0 0.00 0.00 0.00 82 1015.0
20260507133502 64 34 3.0 8.0 0.00 0.00 0.00 82 1015.2
20260507131516 64 301 4.0 10.0 0.00 0.00 0.00 82 1015.2
20260507130500 64 33 4.0 11.0 0.00 0.00 0.00 81 1015.5